| time (UTC) | temp C | wind direction | speed KPH | gust KPH | rain 1hr cm | rain 24hr cm | rain mn cm | humidity % | barometer mb |
| 20260507031733 | 8 | 0 | 0.0 | 0.0 | 0.00 | 0.81 | 0.76 | 73 | 1015.0 |
| 20260507030833 | 8 | 0 | 0.0 | 0.0 | 0.00 | 0.81 | 0.76 | 72 | 1014.8 |
| 20260507025934 | 8 | 0 | 0.0 | 0.0 | 0.00 | 0.81 | 0.76 | 71 | 1014.9 |
| 20260507024134 | 9 | 0 | 0.0 | 0.0 | 0.00 | 0.86 | 0.76 | 70 | 1015.0 |
| 20260507023233 | 10 | 0 | 0.0 | 0.0 | 0.00 | 0.86 | 0.76 | 68 | 1015.0 |
| 20260507022334 | 10 | 0 | 0.0 | 0.0 | 0.00 | 0.89 | 0.76 | 68 | 1015.0 |
| 20260507021433 | 10 | 0 | 0.0 | 0.0 | 0.00 | 0.91 | 0.76 | 67 | 1014.9 |
| 20260507020533 | 10 | 0 | 0.0 | 0.0 | 0.00 | 0.97 | 0.76 | 66 | 1014.8 |
| 20260507014733 | 11 | 0 | 0.0 | 0.0 | 0.00 | 1.02 | 0.76 | 63 | 1014.5 |
| 20260507013833 | 12 | 0 | 0.0 | 0.0 | 0.00 | 1.02 | 0.76 | 61 | 1014.3 |
| 20260507012932 | 12 | 0 | 0.0 | 0.0 | 0.00 | 1.04 | 0.76 | 61 | 1014.4 |
| 20260507012032 | 12 | 0 | 0.0 | 0.0 | 0.00 | 1.07 | 0.76 | 61 | 1014.2 |
| 20260507011134 | 12 | 0 | 0.0 | 0.0 | 0.00 | 1.12 | 0.76 | 61 | 1014.2 |
| 20260507010234 | 12 | 0 | 0.0 | 0.0 | 0.00 | 1.17 | 0.76 | 60 | 1014.3 |
| 20260507005332 | 12 | 0 | 0.0 | 0.0 | 0.00 | 1.27 | 0.76 | 59 | 1014.3 |
| 20260507004432 | 12 | 312 | 0.0 | 4.8 | 0.00 | 1.27 | 0.76 | 59 | 1014.2 |
| 20260507003533 | 12 | 340 | 0.0 | 4.8 | 0.00 | 1.30 | 0.76 | 58 | 1013.9 |
| 20260507002632 | 13 | 0 | 0.0 | 0.0 | 0.00 | 1.32 | 0.76 | 58 | 1013.7 |
| 20260507001732 | 13 | 0 | 0.0 | 0.0 | 0.00 | 1.35 | 0.76 | 58 | 1013.7 |
| 20260507000833 | 13 | 0 | 0.0 | 0.0 | 0.00 | 1.40 | 0.76 | 58 | 1013.6 |
| 20260506235932 | 13 | 0 | 0.0 | 0.0 | 0.00 | 1.45 | 0.76 | 57 | 1013.6 |
| 20260506235032 | 13 | 330 | 0.0 | 6.4 | 0.00 | 1.45 | 0.76 | 56 | 1013.6 |
| 20260506234133 | 13 | 342 | 0.0 | 6.4 | 0.00 | 1.47 | 0.76 | 56 | 1013.5 |
| 20260506232332 | 14 | 286 | 0.0 | 6.4 | 0.00 | 1.52 | 0.76 | 54 | 1013.4 |
| 20260506231432 | 14 | 294 | 1.6 | 9.7 | 0.00 | 1.52 | 0.76 | 53 | 1013.6 |
| 20260506230533 | 15 | 310 | 1.6 | 12.9 | 0.00 | 1.55 | 0.76 | 53 | 1013.6 |
| 20260506225632 | 15 | 316 | 0.0 | 8.0 | 0.00 | 1.57 | 0.76 | 54 | 1013.6 |
| 20260506224732 | 14 | 316 | 1.6 | 8.0 | 0.00 | 1.57 | 0.76 | 54 | 1013.6 |
| 20260506223832 | 14 | 307 | 0.0 | 6.4 | 0.00 | 1.63 | 0.76 | 55 | 1013.9 |
| 20260506222933 | 14 | 338 | 3.2 | 14.5 | 0.00 | 1.68 | 0.76 | 54 | 1013.9 |
| 20260506222032 | 14 | 333 | 1.6 | 12.9 | 0.00 | 1.70 | 0.76 | 55 | 1013.9 |
| 20260506221133 | 14 | 283 | 0.0 | 4.8 | 0.00 | 1.75 | 0.76 | 55 | 1013.9 |
| 20260506220233 | 14 | 289 | 1.6 | 11.3 | 0.00 | 1.80 | 0.76 | 53 | 1013.9 |
| 20260506215332 | 14 | 340 | 1.6 | 12.9 | 0.00 | 1.83 | 0.76 | 54 | 1013.9 |
| 20260506214433 | 14 | 331 | 3.2 | 12.9 | 0.00 | 1.85 | 0.76 | 52 | 1014.0 |
| 20260506213533 | 14 | 335 | 3.2 | 12.9 | 0.00 | 1.88 | 0.76 | 53 | 1013.7 |
| 20260506211732 | 14 | 317 | 1.6 | 11.3 | 0.00 | 1.88 | 0.76 | 53 | 1013.4 |
| 20260506210833 | 14 | 323 | 3.2 | 9.7 | 0.00 | 1.88 | 0.76 | 53 | 1013.4 |
| 20260506205932 | 14 | 330 | 1.6 | 14.5 | 0.00 | 1.88 | 0.76 | 52 | 1013.4 |
| 20260506205032 | 14 | 309 | 1.6 | 9.7 | 0.00 | 1.88 | 0.76 | 54 | 1013.3 |
| 20260506204132 | 14 | 316 | 3.2 | 9.7 | 0.00 | 1.88 | 0.76 | 54 | 1013.4 |
| 20260506203233 | 14 | 315 | 1.6 | 11.3 | 0.00 | 1.91 | 0.76 | 54 | 1013.4 |
| 20260506202332 | 14 | 315 | 1.6 | 11.3 | 0.00 | 1.93 | 0.76 | 54 | 1013.3 |
| 20260506201433 | 15 | 335 | 1.6 | 8.0 | 0.00 | 1.96 | 0.76 | 53 | 1013.4 |
| 20260506200533 | 15 | 5 | 1.6 | 8.0 | 0.00 | 2.01 | 0.76 | 52 | 1013.3 |
| 20260506194732 | 15 | 322 | 3.2 | 9.7 | 0.00 | 2.08 | 0.76 | 54 | 1013.2 |
| 20260506192932 | 15 | 330 | 3.2 | 12.9 | 0.00 | 2.08 | 0.76 | 58 | 1013.0 |
| 20260506192033 | 15 | 317 | 3.2 | 14.5 | 0.00 | 2.08 | 0.76 | 53 | 1013.1 |
| 20260506191132 | 15 | 332 | 3.2 | 14.5 | 0.00 | 2.08 | 0.76 | 51 | 1013.2 |
| 20260506190232 | 15 | 338 | 4.8 | 17.7 | 0.00 | 2.08 | 0.76 | 50 | 1013.2 |
| 20260506185332 | 15 | 326 | 4.8 | 14.5 | 0.00 | 2.08 | 0.76 | 51 | 1013.1 |
| 20260506184433 | 15 | 324 | 3.2 | 14.5 | 0.00 | 2.08 | 0.76 | 53 | 1013.2 |
| 20260506183532 | 16 | 314 | 3.2 | 16.1 | 0.00 | 2.08 | 0.76 | 52 | 1013.0 |
| 20260506182632 | 15 | 322 | 3.2 | 14.5 | 0.00 | 2.08 | 0.76 | 53 | 1012.7 |
| 20260506181732 | 15 | 327 | 3.2 | 12.9 | 0.00 | 2.08 | 0.76 | 55 | 1013.0 |
| 20260506180833 | 15 | 344 | 1.6 | 8.0 | 0.00 | 2.08 | 0.76 | 52 | 1013.2 |
| 20260506175932 | 15 | 325 | 3.2 | 14.5 | 0.00 | 2.08 | 0.76 | 56 | 1013.3 |
| 20260506175032 | 15 | 310 | 3.2 | 17.7 | 0.00 | 2.08 | 0.76 | 56 | 1013.4 |
| 20260506174132 | 15 | 322 | 1.6 | 12.9 | 0.00 | 2.08 | 0.76 | 54 | 1013.4 |
| 20260506173232 | 15 | 322 | 1.6 | 11.3 | 0.00 | 2.08 | 0.76 | 56 | 1013.3 |
| 20260506172331 | 15 | 323 | 3.2 | 11.3 | 0.00 | 2.08 | 0.76 | 58 | 1013.4 |
| 20260506171432 | 15 | 334 | 1.6 | 8.0 | 0.00 | 2.08 | 0.76 | 54 | 1013.3 |
| 20260506170532 | 15 | 352 | 1.6 | 12.9 | 0.00 | 2.08 | 0.76 | 53 | 1013.4 |
| 20260506165632 | 15 | 285 | 3.2 | 12.9 | 0.00 | 2.08 | 0.76 | 55 | 1013.5 |
| 20260506164732 | 15 | 329 | 4.8 | 14.5 | 0.00 | 2.08 | 0.76 | 59 | 1013.3 |
| 20260506163832 | 14 | 357 | 1.6 | 14.5 | 0.00 | 2.08 | 0.76 | 60 | 1013.3 |
| 20260506161132 | 13 | 354 | 0.0 | 11.3 | 0.00 | 2.08 | 0.76 | 61 | 1013.3 |
| 20260506160231 | 13 | 355 | 1.6 | 8.0 | 0.00 | 2.08 | 0.76 | 58 | 1013.5 |
| 20260506155332 | 13 | 7 | 1.6 | 8.0 | 0.00 | 2.08 | 0.76 | 59 | 1013.4 |
| 20260506154432 | 13 | 327 | 1.6 | 11.3 | 0.00 | 2.08 | 0.76 | 63 | 1013.5 |
| 20260506153533 | 13 | 322 | 1.6 | 8.0 | 0.00 | 2.08 | 0.76 | 63 | 1013.6 |
| 20260506152631 | 12 | 13 | 1.6 | 9.7 | 0.00 | 2.08 | 0.76 | 62 | 1013.4 |
| 20260506151731 | 12 | 28 | 1.6 | 9.7 | 0.00 | 2.08 | 0.76 | 63 | 1013.2 |
| 20260506150831 | 12 | 348 | 3.2 | 9.7 | 0.00 | 2.08 | 0.76 | 66 | 1012.8 |
| 20260506145031 | 12 | 13 | 1.6 | 14.5 | 0.00 | 2.08 | 0.76 | 69 | 1012.6 |
| 20260506144131 | 12 | 2 | 3.2 | 14.5 | 0.00 | 2.08 | 0.76 | 68 | 1012.5 |
| 20260506141432 | 11 | 346 | 3.2 | 12.9 | 0.00 | 2.08 | 0.76 | 75 | 1012.5 |
| 20260506140531 | 10 | 338 | 3.2 | 9.7 | 0.00 | 2.08 | 0.76 | 77 | 1012.5 |
| 20260506135631 | 10 | 336 | 1.6 | 9.7 | 0.00 | 2.08 | 0.76 | 80 | 1012.8 |
| 20260506134731 | 10 | 327 | 1.6 | 6.4 | 0.00 | 2.08 | 0.76 | 82 | 1012.7 |
| 20260506132932 | 8 | 332 | 1.6 | 6.4 | 0.00 | 2.08 | 0.76 | 84 | 1012.4 |
| 20260506131131 | 8 | 329 | 1.6 | 9.7 | 0.00 | 2.08 | 0.76 | 86 | 1012.1 |
| 20260506130231 | 8 | 345 | 1.6 | 14.5 | 0.00 | 2.08 | 0.76 | 87 | 1012.3 |
| 20260506125331 | 8 | 336 | 1.6 | 9.7 | 0.00 | 2.08 | 0.76 | 87 | 1011.9 |
| 20260506124432 | 8 | 337 | 0.0 | 4.8 | 0.00 | 2.08 | 0.76 | 88 | 1011.8 |
| 20260506123532 | 8 | 348 | 0.0 | 4.8 | 0.00 | 2.08 | 0.76 | 88 | 1011.6 |
| 20260506122632 | 7 | 0 | 0.0 | 0.0 | 0.00 | 2.08 | 0.76 | 88 | 1011.8 |
| 20260506121732 | 7 | 359 | 0.0 | 4.8 | 0.00 | 2.08 | 0.76 | 88 | 1011.7 |
| 20260506120831 | 7 | 22 | 1.6 | 8.0 | 0.00 | 2.08 | 0.76 | 89 | 1011.3 |
| 20260506115931 | 7 | 358 | 1.6 | 12.9 | 0.00 | 2.08 | 0.76 | 89 | 1011.1 |
| 20260506115031 | 7 | 359 | 1.6 | 8.0 | 0.00 | 2.08 | 0.76 | 90 | 1011.1 |
| 20260506114132 | 7 | 5 | 1.6 | 14.5 | 0.00 | 2.08 | 0.76 | 90 | 1010.7 |
| 20260506113232 | 7 | 21 | 1.6 | 14.5 | 0.00 | 2.08 | 0.76 | 90 | 1010.3 |
| 20260506112331 | 7 | 15 | 0.0 | 12.9 | 0.00 | 2.08 | 0.76 | 90 | 1010.2 |
| 20260506111432 | 7 | 336 | 0.0 | 6.4 | 0.00 | 2.08 | 0.76 | 91 | 1010.3 |
| 20260506105631 | 7 | 358 | 0.0 | 6.4 | 0.00 | 2.08 | 0.76 | 91 | 1010.4 |
| 20260506104732 | 7 | 328 | 0.0 | 1.6 | 0.00 | 2.08 | 0.76 | 91 | 1010.0 |
| 20260506103831 | 7 | 14 | 0.0 | 4.8 | 0.00 | 2.11 | 0.76 | 91 | 1009.7 |
| 20260506102932 | 7 | 356 | 0.0 | 6.4 | 0.00 | 2.11 | 0.76 | 91 | 1009.3 |
| 20260506102031 | 7 | 12 | 3.2 | 11.3 | 0.00 | 2.13 | 0.76 | 92 | 1009.1 |
| 20260506101131 | 7 | 346 | 1.6 | 12.9 | 0.00 | 2.18 | 0.76 | 92 | 1009.4 |
| 20260506100231 | 7 | 336 | 1.6 | 9.7 | 0.00 | 2.18 | 0.76 | 92 | 1009.7 |
| 20260506095331 | 7 | 331 | 1.6 | 11.3 | 0.00 | 2.21 | 0.76 | 92 | 1009.5 |
| 20260506093531 | 7 | 4 | 0.0 | 4.8 | 0.00 | 2.29 | 0.76 | 92 | 1009.0 |
| 20260506092631 | 7 | 27 | 1.6 | 11.3 | 0.00 | 2.31 | 0.76 | 92 | 1008.8 |
| 20260506091731 | 7 | 20 | 1.6 | 4.8 | 0.00 | 2.34 | 0.76 | 92 | 1008.6 |
| 20260506090832 | 7 | 25 | 1.6 | 12.9 | 0.00 | 2.34 | 0.76 | 92 | 1008.8 |
| 20260506085931 | 7 | 10 | 1.6 | 14.5 | 0.00 | 2.39 | 0.76 | 92 | 1009.0 |
| 20260506085032 | 7 | 25 | 1.6 | 9.7 | 0.03 | 2.41 | 0.76 | 92 | 1008.6 |
| 20260506084132 | 7 | 10 | 1.6 | 8.0 | 0.05 | 2.41 | 0.76 | 92 | 1008.7 |
| 20260506083231 | 7 | 16 | 3.2 | 14.5 | 0.08 | 2.41 | 0.76 | 92 | 1008.6 |
| 20260506082330 | 7 | 13 | 3.2 | 12.9 | 0.10 | 2.41 | 0.76 | 92 | 1008.6 |
| 20260506081431 | 7 | 15 | 1.6 | 11.3 | 0.10 | 2.41 | 0.76 | 92 | 1008.4 |
| 20260506080531 | 7 | 7 | 3.2 | 16.1 | 0.10 | 2.41 | 0.76 | 92 | 1008.6 |
| 20260506072930 | 7 | 7 | 3.2 | 17.7 | 0.08 | 2.34 | 0.69 | 92 | 1008.7 |
| 20260506072031 | 7 | 8 | 1.6 | 14.5 | 0.05 | 2.31 | 0.66 | 92 | 1008.8 |
| 20260506071132 | 7 | 4 | 1.6 | 8.0 | 0.08 | 2.31 | 0.66 | 92 | 1008.7 |
| 20260506070230 | 7 | 353 | 3.2 | 17.7 | 0.08 | 2.29 | 0.64 | 92 | 1008.6 |
| 20260506061730 | 8 | 26 | 3.2 | 24.1 | 0.18 | 2.26 | 0.61 | 92 | 1008.0 |
| 20260506060830 | 8 | 21 | 3.2 | 20.9 | 0.20 | 2.24 | 0.58 | 92 | 1007.9 |
| 20260506050530 | 9 | 10 | 4.8 | 17.7 | 0.30 | 2.01 | 0.36 | 92 | 1008.3 |
| 20260506044730 | 9 | 26 | 1.6 | 12.9 | 0.36 | 1.96 | 0.30 | 92 | 1008.1 |
| 20260506042930 | 9 | 349 | 4.8 | 16.1 | 0.30 | 1.91 | 0.25 | 91 | 1008.2 |
| 20260506042030 | 10 | 19 | 4.8 | 20.9 | 0.25 | 1.85 | 0.20 | 92 | 1007.8 |
| 20260506041130 | 10 | 12 | 3.2 | 14.5 | 0.15 | 1.75 | 0.10 | 92 | 1008.1 |
| 20260506035330 | 10 | 29 | 3.2 | 16.1 | 0.03 | 1.63 | 1.63 | 92 | 1007.8 |
| 20260506034430 | 10 | 16 | 1.6 | 14.5 | 0.03 | 1.60 | 1.60 | 92 | 1007.7 |